Stations météo

réclame
Mon MeteoGroup
Le Havre/Octeville, France (7046): Température de l'air & dewpoint: 17.10.2018 07:00:00 - 23.10.2018 07:00:00 (CEST)Le Havre/Octeville, France (7046): Vitesse du vent & gusts: 17.10.2018 07:00:00 - 23.10.2018 07:00:00 (CEST)Le Havre/Octeville, France (7046): Direction du vent: 17.10.2018 07:00:00 - 23.10.2018 07:00:00 (CEST)Le Havre/Octeville, France (7046): reduced air pressure: 17.10.2018 07:00:00 - 23.10.2018 07:00:00 (CEST)Le Havre/Octeville, France (7046): visibility: 17.10.2018 07:00:00 - 23.10.2018 07:00:00 (CEST)Le Havre/Octeville, France (7046): Quantités de précipitations: 17.10.2018 07:00:00 - 23.10.2018 07:00:00 (CEST)
Date & Time tt [°C] td [°C] ff [km/h] ff [knt] fx [km/h] fx [knt] dd ppp [hPa] vv [km] rr [mm]
23.10.2018 07:00:00 11,0 5,7 13 7 20 11 WNW 1034,7 50 0,0
23.10.2018 06:00:00 9,1 5,8 10 5 14 8 WNW 1035,1 56 0,0
23.10.2018 05:00:00 5,0 3,7 0 0 0 0 N 1035,7 19 0,0
23.10.2018 04:00:00 6,1 4,6 0 0 6 3 N 1036,1 37 0,0
23.10.2018 03:00:00 8,6 5,2 6 3 15 8 NE 1036,5 45 0,0
23.10.2018 02:00:00 8,2 5,0 13 7 16 9 N 1037,2 43 0,0
23.10.2018 01:00:00 8,5 5,2 8 4 19 10 NNE 1037,0 42 0,0
23.10.2018 00:00:00 9,0 5,6 8 4 11 6 NNE 1037,5 40 0,0
22.10.2018 23:00:00 10,0 6,0 7 4 16 9 NE 1037,4 41 0,0
22.10.2018 22:00:00 9,0 5,7 11 6 18 10 NNE 1037,2 40 0,0
22.10.2018 21:00:00 8,5 5,8 11 6 16 8 NNE 1036,9 38 0,0
22.10.2018 20:00:00 9,3 5,5 14 7 32 17 NNE 1036,4 40 0,0
22.10.2018 19:00:00 11,6 6,5 20 11 31 17 N 1036,2 40 0,0
22.10.2018 18:00:00 12,6 6,6 24 13 39 21 NNE 1036,0 36 0,0
22.10.2018 17:00:00 12,8 6,8 27 15 49 26 NNE 1035,3 37 0,0
22.10.2018 16:00:00 13,6 6,9 31 17 47 26 NNE 1035,3 29 0,0
22.10.2018 15:00:00 13,2 7,4 29 15 44 24 NNE 1035,1 33 0,0
22.10.2018 14:00:00 13,5 9,9 24 13 40 21 NNE 1034,8 29 0,0
22.10.2018 13:00:00 12,5 9,7 27 15 42 23 NNE 1035,2 25 0,0
22.10.2018 12:00:00 11,7 10,6 26 14 45 24 NNE 1035,1 3,5 0,0
22.10.2018 11:00:00 11,9 10,8 29 16 46 25 NNE 1034,3 11 0,0
22.10.2018 10:00:00 11,8 10,7 26 14 43 23 NNE 1033,7 6 0,0
22.10.2018 09:00:00 12,4 11,5 26 14 40 22 NNE 1032,6 4,0 0,0
22.10.2018 08:00:00 13,4 11,3 28 15 44 24 NNE 1031,6 20 0,0
22.10.2018 07:00:00 13,6 12,3 30 16 49 26 NNE 1030,8 19 0,0
22.10.2018 06:00:00 13,9 12,8 29 16 45 24 NNE 1029,9 20 0,0
22.10.2018 05:00:00 14,2 12,9 17 9 35 19 NNE 1029,6 10 0,0
22.10.2018 04:00:00 13,9 12,3 22 12 30 16 NNE 1029,3 12 0,0
22.10.2018 03:00:00 13,7 12,4 15 8 20 11 NNE 1029,1 11 0,0
22.10.2018 02:00:00 14,4 13,3 11 6 22 12 N 1028,8 10 0,0
22.10.2018 01:00:00 14,3 13,0 13 7 21 11 N 1028,6 10 0,0
22.10.2018 00:00:00 14,2 12,4 14 8 27 15 N 1028,4 15 0,0
21.10.2018 23:00:00 14,0 12,2 16 9 22 12 NNW 1028,0 20 0,0
21.10.2018 22:00:00 12,1 10,8 7 4 11 6 N 1027,8 9 0,0
21.10.2018 21:00:00 13,7 11,7 10 5 13 7 NNW 1027,8 18 0,0
21.10.2018 20:00:00 14,2 10,8 4 2 8 4 N 1027,5 16 0,0
21.10.2018 19:00:00 14,8 10,8 6 3 14 8 NE 1027,3 21 0,0
21.10.2018 18:00:00 15,4 12,0 12 6 17 9 N 1027,2 19 0,0
21.10.2018 17:00:00 15,6 11,4 14 8 23 12 N 1027,4 17 0,0
21.10.2018 16:00:00 15,3 11,1 18 10 26 14 N 1027,7 12 0,0
21.10.2018 15:00:00 15,6 9,5 20 11 27 14 N 1028,1 11 0,0
21.10.2018 14:00:00 15,4 9,5 15 8 21 11 NNW 1028,3 11 0,0
21.10.2018 13:00:00 15,5 8,9 9 5 13 7 NW 1028,5 10 0,0
21.10.2018 12:00:00 15,3 7,8 4 2 9 5 E 1028,8 8 0,0
21.10.2018 11:00:00 14,3 8,5 0 0 3 2 N 1029,2 9 0,0
21.10.2018 10:00:00 10,4 8,7 2 1 7 4 NE 1029,4 3,7 0,0
21.10.2018 09:00:00 8,0 7,1 6 4 9 5 ESE 1028,9 1,9 0,0
21.10.2018 08:00:00 7,0 6,1 4 2 7 4 E 1028,6 1,4 0,0
21.10.2018 07:00:00 7,5 6,8 5 3 7 4 E 1028,9 1,4 0,0
21.10.2018 06:00:00 8,1 7,2 6 4 10 5 E 1029,3 2,2 0,0
21.10.2018 05:00:00 8,5 7,6 7 4 8 5 E 1029,4 2,1 0,0
21.10.2018 04:00:00 9,0 7,8 6 4 10 6 E 1030,1 3,4 0,0
21.10.2018 03:00:00 9,2 8,0 8 4 13 7 E 1030,2 3,7 0,0
21.10.2018 02:00:00 9,7 8,3 9 5 11 6 E 1030,9 4,0 0,0
21.10.2018 01:00:00 10,0 8,3 8 5 16 9 E 1031,0 5 0,0
21.10.2018 00:00:00 9,8 8,1 11 6 18 10 E 1031,2 8 0,0
20.10.2018 23:00:00 10,3 8,1 13 7 18 10 E 1031,1 9 0,0
20.10.2018 22:00:00 10,8 8,2 13 7 18 10 ENE 1031,0 11 0,0
20.10.2018 21:00:00 10,3 7,9 10 6 13 7 ENE 1031,2 9 0,0
20.10.2018 20:00:00 11,1 8,5 10 5 16 8 NE 1030,9 15 0,0
20.10.2018 19:00:00 11,5 8,0 11 6 20 11 NNE 1030,3 23 0,0
20.10.2018 18:00:00 14,8 8,9 16 8 26 14 NNE 1030,2 45 0,0
20.10.2018 17:00:00 15,4 9,7 18 10 26 14 N 1030,6 50 0,0
20.10.2018 16:00:00 16,9 7,8 8 5 17 9 NNE 1030,8 60 0,0
20.10.2018 15:00:00 16,2 7,7 8 4 21 11 ENE 1031,2 23 0,0
20.10.2018 14:00:00 15,3 7,6 13 7 27 15 E 1031,9 21 0,0
20.10.2018 13:00:00 15,0 8,5 15 8 24 13 ENE 1032,3 22 0,0
20.10.2018 12:00:00 13,9 7,9 15 8 21 12 E 1032,4 20 0,0
20.10.2018 11:00:00 12,5 7,4 12 7 19 10 E 1032,3 19 0,0
20.10.2018 10:00:00 10,8 6,9 9 5 13 7 ENE 1032,2 20 0,0
20.10.2018 09:00:00 7,8 5,6 7 4 10 5 ENE 1031,4 14 0,0
20.10.2018 08:00:00 7,7 5,0 9 5 13 7 E 1030,6 25 0,0
20.10.2018 07:00:00 7,9 4,8 7 4 12 7 ENE 1030,3 31 0,0
20.10.2018 06:00:00 8,8 5,2 10 5 14 8 E 1029,5 32 0,0
20.10.2018 05:00:00 8,2 5,1 8 4 13 7 E 1029,5 31 0,0
20.10.2018 04:00:00 8,7 5,3 10 5 14 8 E 1029,0 28 0,0
20.10.2018 03:00:00 8,8 6,2 9 5 13 7 E 1028,9 19 0,0
20.10.2018 02:00:00 9,6 7,5 9 5 13 7 E 1028,9 13 0,0
20.10.2018 01:00:00 10,3 8,2 10 5 16 8 ENE 1028,5 10 0,0
20.10.2018 00:00:00 9,9 7,7 11 6 13 7 NNE 1028,6 17 0,0
19.10.2018 23:00:00 10,3 7,9 8 5 11 6 NE 1028,3 15 0,0
19.10.2018 22:00:00 10,5 8,4 6 3 10 5 NNE 1027,8 13 0,0
19.10.2018 21:00:00 10,5 8,6 9 5 10 5 NNE 1027,3 11 0,0
19.10.2018 20:00:00 11,3 9,6 6 3 13 7 N 1026,7 9 0,0
19.10.2018 19:00:00 12,5 10,0 11 6 26 14 NNE 1026,0 9 0,0
19.10.2018 18:00:00 14,7 9,9 19 10 28 15 NNE 1025,6 14 0,0
19.10.2018 17:00:00 15,9 9,1 22 12 30 16 NNE 1025,2 20 0,0
19.10.2018 16:00:00 16,9 9,6 16 9 26 14 NNE 1024,7 20 0,0
19.10.2018 15:00:00 16,4 9,1 16 9 27 15 NNE 1024,7 19 0,0
19.10.2018 14:00:00 16,8 10,2 17 9 27 15 NNE 1024,9 10 0,0
19.10.2018 13:00:00 16,1 10,4 16 9 28 15 NE 1025,1 8 0,0
19.10.2018 12:00:00 14,8 10,6 18 10 27 15 NE 1025,2 8 0,0
19.10.2018 11:00:00 13,3 10,1 16 9 24 13 NE 1025,2 7 0,0
19.10.2018 10:00:00 11,8 9,7 11 6 18 10 ENE 1024,5 7 0,0
19.10.2018 09:00:00 10,4 9,0 11 6 16 8 ENE 1024,2 6 0,0
19.10.2018 08:00:00 9,8 8,4 7 4 14 8 NE 1024,1 7 0,0
19.10.2018 07:00:00 9,3 7,6 7 4 17 9 NE 1023,8 8 0,0
19.10.2018 06:00:00 10,1 8,2 12 7 17 9 ENE 1023,8 10 0,0
19.10.2018 05:00:00 10,2 8,1 11 6 21 12 ENE 1024,0 11 0,0
19.10.2018 04:00:00 10,5 8,3 13 7 21 12 ENE 1023,9 15 0,0
19.10.2018 03:00:00 10,6 8,4 12 7 23 12 E 1024,0 17 0,0
19.10.2018 02:00:00 11,3 9,0 14 8 22 12 ENE 1024,2 20 0,0
19.10.2018 01:00:00 11,4 9,5 12 6 19 10 ENE 1024,4 20 0,0
19.10.2018 00:00:00 11,8 9,7 13 7 22 12 ENE 1024,4 29 0,0
18.10.2018 23:00:00 12,2 9,9 13 7 28 15 NE 1024,5 30 0,0
18.10.2018 22:00:00 12,8 10,0 17 9 26 14 NE 1024,1 34 0,0
18.10.2018 21:00:00 12,9 10,6 13 7 25 14 NE 1024,1 26 0,0
18.10.2018 20:00:00 13,6 10,8 16 9 24 13 NE 1023,8 31 0,0
18.10.2018 19:00:00 14,4 10,4 15 8 35 19 NE 1023,2 41 0,0
18.10.2018 18:00:00 15,9 10,6 21 12 37 20 NE 1023,1 42 0,0
18.10.2018 17:00:00 16,2 10,7 25 13 47 26 NE 1023,0 30 0,0
18.10.2018 16:00:00 17,3 10,9 24 13 41 22 ENE 1023,1 58 0,0
18.10.2018 15:00:00 17,0 11,0 26 14 41 22 NE 1023,5 43 0,0
18.10.2018 14:00:00 16,1 10,8 23 13 41 22 NE 1023,9 53 0,0
18.10.2018 13:00:00 16,5 11,4 26 14 41 22 ENE 1024,2 58 0,0
18.10.2018 12:00:00 15,1 11,3 23 12 35 19 ENE 1024,3 54 0,0
18.10.2018 11:00:00 14,2 11,4 16 9 25 14 ENE 1024,1 20 0,0
18.10.2018 10:00:00 13,9 11,1 15 8 25 13 ENE 1023,7 19 0,0
18.10.2018 09:00:00 13,6 11,1 13 7 23 12 ENE 1023,4 15 0,0
18.10.2018 08:00:00 13,4 11,6 14 8 23 12 ENE 1023,3 9 0,0
18.10.2018 07:00:00 13,4 11,8 15 8 23 12 ENE 1022,9 8 0,0
18.10.2018 06:00:00 13,6 11,6 14 8 23 12 ENE 1022,7 9 0,0
18.10.2018 05:00:00 13,7 11,7 15 8 24 13 ENE 1022,7 10 0,0
18.10.2018 04:00:00 14,0 11,7 16 9 27 15 NE 1022,6 17 0,0
18.10.2018 03:00:00 14,2 11,4 17 9 29 15 ENE 1022,2 32 0,0
18.10.2018 02:00:00 14,3 11,8 16 8 24 13 ENE 1022,1 20 0,0
18.10.2018 01:00:00 14,3 12,2 15 8 22 12 ENE 1021,9 16 0,0
18.10.2018 00:00:00 14,4 12,3 15 8 26 14 ENE 1021,9 14 0,0
17.10.2018 23:00:00 14,4 11,9 13 7 25 14 ENE 1021,8 19 0,0
17.10.2018 22:00:00 14,4 11,9 14 8 21 12 ENE 1021,6 22 0,0
17.10.2018 21:00:00 14,5 11,6 14 7 21 11 ENE 1020,9 30 0,0
17.10.2018 20:00:00 14,7 12,2 14 8 24 13 NE 1020,2 20 0,0
17.10.2018 19:00:00 15,0 12,9 14 8 21 12 NNE 1019,6 12 0,0
17.10.2018 18:00:00 16,5 12,6 13 7 17 9 NNE 1018,9 11 0,0
17.10.2018 17:00:00 17,1 12,0 12 6 19 11 NNE 1019,0 15 0,0
17.10.2018 16:00:00 16,4 13,3 15 8 19 10 NNW 1019,0 5 0,0
17.10.2018 15:00:00 15,5 14,0 11 6 16 8 NNW 1019,0 2,9 0,0
17.10.2018 14:00:00 14,0 12,7 10 5 14 7 W 1019,5 1,9 0,0
17.10.2018 13:00:00 14,1 13,1 7 4 10 5 ENE 1020,0 2,8 0,0
17.10.2018 12:00:00 13,2 12,6 5 3 10 5 ESE 1019,9 1,5 0,0
17.10.2018 11:00:00 12,5 11,9 5 3 11 6 ESE 1019,9 0,1 0,0
17.10.2018 10:00:00 11,0 10,4 3 2 10 6 ENE 1019,8 0,1 0,0
17.10.2018 09:00:00 10,1 9,5 7 4 10 5 E 1019,5 0,1 0,2
17.10.2018 08:00:00 10,0 9,4 5 3 8 5 E 1019,4 0,1 0,0
17.10.2018 07:00:00 12,2 10,9 4 2 13 7 SE 1019,1 0,2 0,0

tt = Température de l'air
td = dewpoint
ff = Vitesse du vent
fx = gusts
dd = Direction du vent
ppp = reduced air pressure
vv = visibility
rr = Quantités de précipitations

stations d'obs. à proximité